owner,sensor,date,latitude,longitude,vertical_datum,sea_water_temperature,qcFlag 
WAVCIS,ioos:station:WAVCIS:CSI03:1,2008-01-01T00:00:00Z,29.4412,-92.0613,10.0,13.6,11111222 
WAVCIS,ioos:station:WAVCIS:CSI03:1,2008-01-01T01:00:00Z,29.4412,-92.0613,10.0,13.65,11111222 
WAVCIS,ioos:station:WAVCIS:CSI03:1,2008-01-01T02:00:00Z,29.4412,-92.0613,10.0,13.66,11111222 
WAVCIS,ioos:station:WAVCIS:CSI03:1,2008-01-01T03:00:00Z,29.4412,-92.0613,10.0,13.72,11111222 
WAVCIS,ioos:station:WAVCIS:CSI03:1,2008-01-01T04:00:00Z,29.4412,-92.0613,10.0,13.66,11111222 
WAVCIS,ioos:station:WAVCIS:CSI03:1,2008-01-01T05:00:00Z,29.4412,-92.0613,10.0,13.64,11111222 
WAVCIS,ioos:station:WAVCIS:CSI03:1,2008-01-01T06:00:00Z,29.4412,-92.0613,10.0,13.72,11111222 
WAVCIS,ioos:station:WAVCIS:CSI03:1,2008-01-01T07:00:00Z,29.4412,-92.0613,10.0,13.79,11111222 
WAVCIS,ioos:station:WAVCIS:CSI03:1,2008-01-01T08:00:00Z,29.4412,-92.0613,10.0,13.7,11111222 
WAVCIS,ioos:station:WAVCIS:CSI03:1,2008-01-01T09:00:00Z,29.4412,-92.0613,10.0,13.61,11111222 
WAVCIS,ioos:station:WAVCIS:CSI03:1,2008-01-01T10:00:00Z,29.4412,-92.0613,10.0,13.43,11111222 
WAVCIS,ioos:station:WAVCIS:CSI03:1,2008-01-01T11:00:00Z,29.4412,-92.0613,10.0,13.09,11111222 
WAVCIS,ioos:station:WAVCIS:CSI03:1,2008-01-01T12:00:00Z,29.4412,-92.0613,10.0,12.94,11111222 
WAVCIS,ioos:station:WAVCIS:CSI03:1,2008-01-01T13:00:00Z,29.4412,-92.0613,10.0,12.8,11111222 
WAVCIS,ioos:station:WAVCIS:CSI03:1,2008-01-01T14:00:00Z,29.4412,-92.0613,10.0,12.66,11111222 
WAVCIS,ioos:station:WAVCIS:CSI03:1,2008-01-01T15:00:00Z,29.4412,-92.0613,10.0,12.6,11111222 
WAVCIS,ioos:station:WAVCIS:CSI03:1,2008-01-01T16:00:00Z,29.4412,-92.0613,10.0,12.61,11111222 
WAVCIS,ioos:station:WAVCIS:CSI03:1,2008-01-01T17:00:00Z,29.4412,-92.0613,10.0,12.64,11111222 
WAVCIS,ioos:station:WAVCIS:CSI03:1,2008-01-01T18:00:00Z,29.4412,-92.0613,10.0,12.57,11111222 
WAVCIS,ioos:station:WAVCIS:CSI03:1,2008-01-01T19:00:00Z,29.4412,-92.0613,10.0,12.77,11111222 
WAVCIS,ioos:station:WAVCIS:CSI03:1,2008-01-01T20:00:00Z,29.4412,-92.0613,10.0,12.76,11111222 
WAVCIS,ioos:station:WAVCIS:CSI03:1,2008-01-01T21:00:00Z,29.4412,-92.0613,10.0,12.84,11111222 
WAVCIS,ioos:station:WAVCIS:CSI03:1,2008-01-01T22:00:00Z,29.4412,-92.0613,10.0,12.82,11111222 
WAVCIS,ioos:station:WAVCIS:CSI03:1,2008-01-01T23:00:00Z,29.4412,-92.0613,10.0,12.76,11111222 
WAVCIS,ioos:station:WAVCIS:CSI03:1,2008-01-02T00:00:00Z,29.4412,-92.0613,10.0,12.69,11111222 
WAVCIS,ioos:station:WAVCIS:CSI03:1,2008-01-02T01:00:00Z,29.4412,-92.0613,10.0,12.64,11111222 
WAVCIS,ioos:station:WAVCIS:CSI03:1,2008-01-02T02:00:00Z,29.4412,-92.0613,10.0,12.65,11111222 
WAVCIS,ioos:station:WAVCIS:CSI03:1,2008-01-02T03:00:00Z,29.4412,-92.0613,10.0,12.69,11111222 
WAVCIS,ioos:station:WAVCIS:CSI03:1,2008-01-02T04:00:00Z,29.4412,-92.0613,10.0,12.67,11111222 
WAVCIS,ioos:station:WAVCIS:CSI03:1,2008-01-02T05:00:00Z,29.4412,-92.0613,10.0,12.65,11111222 
WAVCIS,ioos:station:WAVCIS:CSI03:1,2008-01-02T06:00:00Z,29.4412,-92.0613,10.0,12.59,11111222 
WAVCIS,ioos:station:WAVCIS:CSI03:1,2008-01-02T07:00:00Z,29.4412,-92.0613,10.0,12.53,11111222 
WAVCIS,ioos:station:WAVCIS:CSI03:1,2008-01-02T08:00:00Z,29.4412,-92.0613,10.0,12.38,11111222 
WAVCIS,ioos:station:WAVCIS:CSI03:1,2008-01-02T09:00:00Z,29.4412,-92.0613,10.0,12.28,11111222 
WAVCIS,ioos:station:WAVCIS:CSI03:1,2008-01-02T10:00:00Z,29.4412,-92.0613,10.0,11.89,11111222 
WAVCIS,ioos:station:WAVCIS:CSI03:1,2008-01-02T11:00:00Z,29.4412,-92.0613,10.0,11.43,11111222 
WAVCIS,ioos:station:WAVCIS:CSI03:1,2008-01-02T12:00:00Z,29.4412,-92.0613,10.0,11.1,11111222 
WAVCIS,ioos:station:WAVCIS:CSI03:1,2008-01-02T13:00:00Z,29.4412,-92.0613,10.0,10.86,11111222 
WAVCIS,ioos:station:WAVCIS:CSI03:1,2008-01-02T14:00:00Z,29.4412,-92.0613,10.0,10.98,11111222 
WAVCIS,ioos:station:WAVCIS:CSI03:1,2008-01-02T15:00:00Z,29.4412,-92.0613,10.0,11.12,11111222 
WAVCIS,ioos:station:WAVCIS:CSI03:1,2008-01-02T16:00:00Z,29.4412,-92.0613,10.0,11.29,11111222 
WAVCIS,ioos:station:WAVCIS:CSI03:1,2008-01-02T17:00:00Z,29.4412,-92.0613,10.0,11.76,11111222 
WAVCIS,ioos:station:WAVCIS:CSI03:1,2008-01-02T18:00:00Z,29.4412,-92.0613,10.0,11.82,11111222 
WAVCIS,ioos:station:WAVCIS:CSI03:1,2008-01-02T19:00:00Z,29.4412,-92.0613,10.0,12.03,11111222 
WAVCIS,ioos:station:WAVCIS:CSI03:1,2008-01-02T20:00:00Z,29.4412,-92.0613,10.0,12.19,11111222 
WAVCIS,ioos:station:WAVCIS:CSI03:1,2008-01-02T21:00:00Z,29.4412,-92.0613,10.0,12.32,11111222 
WAVCIS,ioos:station:WAVCIS:CSI03:1,2008-01-02T22:00:00Z,29.4412,-92.0613,10.0,13.06,11111222 
WAVCIS,ioos:station:WAVCIS:CSI03:1,2008-01-02T23:00:00Z,29.4412,-92.0613,10.0,13.21,11111222 
WAVCIS,ioos:station:WAVCIS:CSI03:1,2008-01-03T00:00:00Z,29.4412,-92.0613,10.0,13.4,11111222 
WAVCIS,ioos:station:WAVCIS:CSI03:1,2008-01-03T01:00:00Z,29.4412,-92.0613,10.0,13.5,11111222 
WAVCIS,ioos:station:WAVCIS:CSI03:1,2008-01-03T02:00:00Z,29.4412,-92.0613,10.0,13.46,11111222 
WAVCIS,ioos:station:WAVCIS:CSI03:1,2008-01-03T03:00:00Z,29.4412,-92.0613,10.0,13.42,11111222 
WAVCIS,ioos:station:WAVCIS:CSI03:1,2008-01-03T04:00:00Z,29.4412,-92.0613,10.0,13.31,11111222 
WAVCIS,ioos:station:WAVCIS:CSI03:1,2008-01-03T05:00:00Z,29.4412,-92.0613,10.0,13.11,11111222 
WAVCIS,ioos:station:WAVCIS:CSI03:1,2008-01-03T06:00:00Z,29.4412,-92.0613,10.0,12.9,11111222 
WAVCIS,ioos:station:WAVCIS:CSI03:1,2008-01-03T07:00:00Z,29.4412,-92.0613,10.0,12.69,11111222 
WAVCIS,ioos:station:WAVCIS:CSI03:1,2008-01-03T08:00:00Z,29.4412,-92.0613,10.0,12.42,11111222 
WAVCIS,ioos:station:WAVCIS:CSI03:1,2008-01-03T09:00:00Z,29.4412,-92.0613,10.0,12.11,11111222 
WAVCIS,ioos:station:WAVCIS:CSI03:1,2008-01-03T10:00:00Z,29.4412,-92.0613,10.0,11.65,11111222 
WAVCIS,ioos:station:WAVCIS:CSI03:1,2008-01-03T11:00:00Z,29.4412,-92.0613,10.0,11.08,11111222 
WAVCIS,ioos:station:WAVCIS:CSI03:1,2008-01-03T12:00:00Z,29.4412,-92.0613,10.0,10.16,11111222 
WAVCIS,ioos:station:WAVCIS:CSI03:1,2008-01-03T13:00:00Z,29.4412,-92.0613,10.0,9.65,11133222 
WAVCIS,ioos:station:WAVCIS:CSI03:1,2008-01-03T14:00:00Z,29.4412,-92.0613,10.0,9.46,11133222 
WAVCIS,ioos:station:WAVCIS:CSI03:1,2008-01-03T15:00:00Z,29.4412,-92.0613,10.0,9.52,11133222 
WAVCIS,ioos:station:WAVCIS:CSI03:1,2008-01-03T16:00:00Z,29.4412,-92.0613,10.0,8.67,11133222 
WAVCIS,ioos:station:WAVCIS:CSI03:1,2008-01-03T17:00:00Z,29.4412,-92.0613,10.0,9.27,11133222 
WAVCIS,ioos:station:WAVCIS:CSI03:1,2008-01-03T18:00:00Z,29.4412,-92.0613,10.0,9.65,11133222 
WAVCIS,ioos:station:WAVCIS:CSI03:1,2008-01-03T19:00:00Z,29.4412,-92.0613,10.0,9.91,11133222 
WAVCIS,ioos:station:WAVCIS:CSI03:1,2008-01-03T20:00:00Z,29.4412,-92.0613,10.0,9.96,11133222 
WAVCIS,ioos:station:WAVCIS:CSI03:1,2008-01-03T21:00:00Z,29.4412,-92.0613,10.0,10.06,11111222 
WAVCIS,ioos:station:WAVCIS:CSI03:1,2008-01-03T22:00:00Z,29.4412,-92.0613,10.0,10.19,11111222 
WAVCIS,ioos:station:WAVCIS:CSI03:1,2008-01-03T23:00:00Z,29.4412,-92.0613,10.0,10.14,11111222 
WAVCIS,ioos:station:WAVCIS:CSI03:1,2008-01-04T00:00:00Z,29.4412,-92.0613,10.0,10.03,11111222 
WAVCIS,ioos:station:WAVCIS:CSI03:1,2008-01-04T01:00:00Z,29.4412,-92.0613,10.0,10.14,11111222 
WAVCIS,ioos:station:WAVCIS:CSI03:1,2008-01-04T02:00:00Z,29.4412,-92.0613,10.0,10.14,11111222 
WAVCIS,ioos:station:WAVCIS:CSI03:1,2008-01-04T03:00:00Z,29.4412,-92.0613,10.0,10.35,11111222 
WAVCIS,ioos:station:WAVCIS:CSI03:1,2008-01-04T04:00:00Z,29.4412,-92.0613,10.0,10.36,11111222 
WAVCIS,ioos:station:WAVCIS:CSI03:1,2008-01-04T05:00:00Z,29.4412,-92.0613,10.0,10.33,11111222 
WAVCIS,ioos:station:WAVCIS:CSI03:1,2008-01-04T06:00:00Z,29.4412,-92.0613,10.0,10.14,11111222 
WAVCIS,ioos:station:WAVCIS:CSI03:1,2008-01-04T07:00:00Z,29.4412,-92.0613,10.0,9.74,11133222 
WAVCIS,ioos:station:WAVCIS:CSI03:1,2008-01-04T08:00:00Z,29.4412,-92.0613,10.0,9.01,11133222 
WAVCIS,ioos:station:WAVCIS:CSI03:1,2008-01-04T09:00:00Z,29.4412,-92.0613,10.0,8.55,11133222 
WAVCIS,ioos:station:WAVCIS:CSI03:1,2008-01-04T10:00:00Z,29.4412,-92.0613,10.0,8.09,11133222 
WAVCIS,ioos:station:WAVCIS:CSI03:1,2008-01-04T11:00:00Z,29.4412,-92.0613,10.0,7.82,11133222 
WAVCIS,ioos:station:WAVCIS:CSI03:1,2008-01-04T12:00:00Z,29.4412,-92.0613,10.0,8.0,11133222 
WAVCIS,ioos:station:WAVCIS:CSI03:1,2008-01-04T13:00:00Z,29.4412,-92.0613,10.0,8.02,11133222 
WAVCIS,ioos:station:WAVCIS:CSI03:1,2008-01-04T14:00:00Z,29.4412,-92.0613,10.0,8.19,11133222 
WAVCIS,ioos:station:WAVCIS:CSI03:1,2008-01-04T15:00:00Z,29.4412,-92.0613,10.0,8.78,11133222 
WAVCIS,ioos:station:WAVCIS:CSI03:1,2008-01-04T16:00:00Z,29.4412,-92.0613,10.0,9.5,11133222 
WAVCIS,ioos:station:WAVCIS:CSI03:1,2008-01-04T17:00:00Z,29.4412,-92.0613,10.0,9.97,11133222 
WAVCIS,ioos:station:WAVCIS:CSI03:1,2008-01-04T18:00:00Z,29.4412,-92.0613,10.0,10.34,11111222 
WAVCIS,ioos:station:WAVCIS:CSI03:1,2008-01-04T19:00:00Z,29.4412,-92.0613,10.0,10.65,11111222 
WAVCIS,ioos:station:WAVCIS:CSI03:1,2008-01-04T20:00:00Z,29.4412,-92.0613,10.0,10.94,11111222 
WAVCIS,ioos:station:WAVCIS:CSI03:1,2008-01-04T21:00:00Z,29.4412,-92.0613,10.0,11.12,11111222 
WAVCIS,ioos:station:WAVCIS:CSI03:1,2008-01-04T22:00:00Z,29.4412,-92.0613,10.0,11.25,11111222 
WAVCIS,ioos:station:WAVCIS:CSI03:1,2008-01-04T23:00:00Z,29.4412,-92.0613,10.0,11.21,11111222 
WAVCIS,ioos:station:WAVCIS:CSI03:1,2008-01-05T00:00:00Z,29.4412,-92.0613,10.0,11.17,11111222 
WAVCIS,ioos:station:WAVCIS:CSI03:1,2008-01-05T01:00:00Z,29.4412,-92.0613,10.0,11.09,11111222 
WAVCIS,ioos:station:WAVCIS:CSI03:1,2008-01-05T02:00:00Z,29.4412,-92.0613,10.0,10.94,11111222 
WAVCIS,ioos:station:WAVCIS:CSI03:1,2008-01-05T03:00:00Z,29.4412,-92.0613,10.0,10.75,11111222 
WAVCIS,ioos:station:WAVCIS:CSI03:1,2008-01-05T04:00:00Z,29.4412,-92.0613,10.0,10.64,11111222 
WAVCIS,ioos:station:WAVCIS:CSI03:1,2008-01-05T05:00:00Z,29.4412,-92.0613,10.0,10.57,11111222 
WAVCIS,ioos:station:WAVCIS:CSI03:1,2008-01-05T06:00:00Z,29.4412,-92.0613,10.0,10.54,11111222 
WAVCIS,ioos:station:WAVCIS:CSI03:1,2008-01-05T07:00:00Z,29.4412,-92.0613,10.0,10.24,11111222 
WAVCIS,ioos:station:WAVCIS:CSI03:1,2008-01-05T08:00:00Z,29.4412,-92.0613,10.0,10.06,11111222 
WAVCIS,ioos:station:WAVCIS:CSI03:1,2008-01-05T09:00:00Z,29.4412,-92.0613,10.0,9.85,11133222 
WAVCIS,ioos:station:WAVCIS:CSI03:1,2008-01-05T10:00:00Z,29.4412,-92.0613,10.0,9.7,11133222 
WAVCIS,ioos:station:WAVCIS:CSI03:1,2008-01-05T11:00:00Z,29.4412,-92.0613,10.0,9.61,11133222 
WAVCIS,ioos:station:WAVCIS:CSI03:1,2008-01-05T12:00:00Z,29.4412,-92.0613,10.0,9.52,11133222 
WAVCIS,ioos:station:WAVCIS:CSI03:1,2008-01-05T13:00:00Z,29.4412,-92.0613,10.0,9.45,11133222 
WAVCIS,ioos:station:WAVCIS:CSI03:1,2008-01-05T14:00:00Z,29.4412,-92.0613,10.0,9.5,11133222 
WAVCIS,ioos:station:WAVCIS:CSI03:1,2008-01-05T15:00:00Z,29.4412,-92.0613,10.0,9.65,11133222 
WAVCIS,ioos:station:WAVCIS:CSI03:1,2008-01-05T16:00:00Z,29.4412,-92.0613,10.0,9.79,11133222 
WAVCIS,ioos:station:WAVCIS:CSI03:1,2008-01-05T17:00:00Z,29.4412,-92.0613,10.0,10.1,11111222 
WAVCIS,ioos:station:WAVCIS:CSI03:1,2008-01-05T18:00:00Z,29.4412,-92.0613,10.0,9.12,11133222 
WAVCIS,ioos:station:WAVCIS:CSI03:1,2008-01-05T19:00:00Z,29.4412,-92.0613,10.0,9.45,11133222 
WAVCIS,ioos:station:WAVCIS:CSI03:1,2008-01-05T20:00:00Z,29.4412,-92.0613,10.0,9.7,11133222 
WAVCIS,ioos:station:WAVCIS:CSI03:1,2008-01-05T21:00:00Z,29.4412,-92.0613,10.0,9.84,11133222 
WAVCIS,ioos:station:WAVCIS:CSI03:1,2008-01-05T22:00:00Z,29.4412,-92.0613,10.0,9.86,11133222 
WAVCIS,ioos:station:WAVCIS:CSI03:1,2008-01-05T23:00:00Z,29.4412,-92.0613,10.0,9.87,11133222 
WAVCIS,ioos:station:WAVCIS:CSI03:1,2008-01-06T00:00:00Z,29.4412,-92.0613,10.0,9.89,11133222 
WAVCIS,ioos:station:WAVCIS:CSI03:1,2008-01-06T01:00:00Z,29.4412,-92.0613,10.0,9.85,11133222 
WAVCIS,ioos:station:WAVCIS:CSI03:1,2008-01-06T02:00:00Z,29.4412,-92.0613,10.0,9.71,11133222 
WAVCIS,ioos:station:WAVCIS:CSI03:1,2008-01-06T03:00:00Z,29.4412,-92.0613,10.0,9.73,11133222 
WAVCIS,ioos:station:WAVCIS:CSI03:1,2008-01-06T04:00:00Z,29.4412,-92.0613,10.0,9.61,11133222 
WAVCIS,ioos:station:WAVCIS:CSI03:1,2008-01-06T05:00:00Z,29.4412,-92.0613,10.0,9.55,11133222 
WAVCIS,ioos:station:WAVCIS:CSI03:1,2008-01-06T06:00:00Z,29.4412,-92.0613,10.0,9.53,11133222 
WAVCIS,ioos:station:WAVCIS:CSI03:1,2008-01-06T07:00:00Z,29.4412,-92.0613,10.0,9.5,11133222 
WAVCIS,ioos:station:WAVCIS:CSI03:1,2008-01-06T08:00:00Z,29.4412,-92.0613,10.0,9.5,11133222 
WAVCIS,ioos:station:WAVCIS:CSI03:1,2008-01-06T09:00:00Z,29.4412,-92.0613,10.0,9.41,11133222 
WAVCIS,ioos:station:WAVCIS:CSI03:1,2008-01-06T10:00:00Z,29.4412,-92.0613,10.0,9.29,11133222 
WAVCIS,ioos:station:WAVCIS:CSI03:1,2008-01-06T11:00:00Z,29.4412,-92.0613,10.0,9.26,11133222 
WAVCIS,ioos:station:WAVCIS:CSI03:1,2008-01-06T12:00:00Z,29.4412,-92.0613,10.0,9.13,11133222 
WAVCIS,ioos:station:WAVCIS:CSI03:1,2008-01-06T13:00:00Z,29.4412,-92.0613,10.0,8.99,11133222 
WAVCIS,ioos:station:WAVCIS:CSI03:1,2008-01-06T14:00:00Z,29.4412,-92.0613,10.0,8.92,11133222 
WAVCIS,ioos:station:WAVCIS:CSI03:1,2008-01-06T15:00:00Z,29.4412,-92.0613,10.0,8.95,11133222 
WAVCIS,ioos:station:WAVCIS:CSI03:1,2008-01-06T16:00:00Z,29.4412,-92.0613,10.0,9.18,11133222 
WAVCIS,ioos:station:WAVCIS:CSI03:1,2008-01-06T17:00:00Z,29.4412,-92.0613,10.0,9.15,11133222 
WAVCIS,ioos:station:WAVCIS:CSI03:1,2008-01-06T18:00:00Z,29.4412,-92.0613,10.0,9.29,11133222 
WAVCIS,ioos:station:WAVCIS:CSI03:1,2008-01-06T19:00:00Z,29.4412,-92.0613,10.0,9.65,11133222 
WAVCIS,ioos:station:WAVCIS:CSI03:1,2008-01-06T20:00:00Z,29.4412,-92.0613,10.0,10.35,11111222 
WAVCIS,ioos:station:WAVCIS:CSI03:1,2008-01-06T21:00:00Z,29.4412,-92.0613,10.0,10.69,11111222 
WAVCIS,ioos:station:WAVCIS:CSI03:1,2008-01-06T22:00:00Z,29.4412,-92.0613,10.0,10.29,11111222 
WAVCIS,ioos:station:WAVCIS:CSI03:1,2008-01-06T23:00:00Z,29.4412,-92.0613,10.0,10.19,11111222 
WAVCIS,ioos:station:WAVCIS:CSI03:1,2008-01-07T00:00:00Z,29.4412,-92.0613,10.0,9.92,11133222 
WAVCIS,ioos:station:WAVCIS:CSI03:1,2008-01-07T01:00:00Z,29.4412,-92.0613,10.0,10.67,11111222 
WAVCIS,ioos:station:WAVCIS:CSI03:1,2008-01-07T02:00:00Z,29.4412,-92.0613,10.0,10.62,11111222 
WAVCIS,ioos:station:WAVCIS:CSI03:1,2008-01-07T03:00:00Z,29.4412,-92.0613,10.0,10.43,11111222 
WAVCIS,ioos:station:WAVCIS:CSI03:1,2008-01-07T04:00:00Z,29.4412,-92.0613,10.0,10.36,11111222 
WAVCIS,ioos:station:WAVCIS:CSI03:1,2008-01-07T05:00:00Z,29.4412,-92.0613,10.0,10.26,11111222 
WAVCIS,ioos:station:WAVCIS:CSI03:1,2008-01-07T06:00:00Z,29.4412,-92.0613,10.0,10.2,11111222 
WAVCIS,ioos:station:WAVCIS:CSI03:1,2008-01-07T07:00:00Z,29.4412,-92.0613,10.0,10.16,11111222 
WAVCIS,ioos:station:WAVCIS:CSI03:1,2008-01-07T08:00:00Z,29.4412,-92.0613,10.0,10.17,11111222 
WAVCIS,ioos:station:WAVCIS:CSI03:1,2008-01-07T09:00:00Z,29.4412,-92.0613,10.0,10.04,11111222 
WAVCIS,ioos:station:WAVCIS:CSI03:1,2008-01-07T10:00:00Z,29.4412,-92.0613,10.0,9.92,11133222 
WAVCIS,ioos:station:WAVCIS:CSI03:1,2008-01-07T11:00:00Z,29.4412,-92.0613,10.0,9.9,11133222 
WAVCIS,ioos:station:WAVCIS:CSI03:1,2008-01-07T12:00:00Z,29.4412,-92.0613,10.0,10.01,11111222 
WAVCIS,ioos:station:WAVCIS:CSI03:1,2008-01-07T13:00:00Z,29.4412,-92.0613,10.0,10.08,11111222 
WAVCIS,ioos:station:WAVCIS:CSI03:1,2008-01-07T14:00:00Z,29.4412,-92.0613,10.0,10.11,11111222 
WAVCIS,ioos:station:WAVCIS:CSI03:1,2008-01-07T15:00:00Z,29.4412,-92.0613,10.0,10.19,11111222 
WAVCIS,ioos:station:WAVCIS:CSI03:1,2008-01-07T16:00:00Z,29.4412,-92.0613,10.0,10.3,11111222 
WAVCIS,ioos:station:WAVCIS:CSI03:1,2008-01-07T17:00:00Z,29.4412,-92.0613,10.0,10.41,11111222 
WAVCIS,ioos:station:WAVCIS:CSI03:1,2008-01-07T18:00:00Z,29.4412,-92.0613,10.0,10.76,11111222 
WAVCIS,ioos:station:WAVCIS:CSI03:1,2008-01-07T19:00:00Z,29.4412,-92.0613,10.0,10.73,11111222 
WAVCIS,ioos:station:WAVCIS:CSI03:1,2008-01-07T20:00:00Z,29.4412,-92.0613,10.0,11.01,11111222 
WAVCIS,ioos:station:WAVCIS:CSI03:1,2008-01-07T21:00:00Z,29.4412,-92.0613,10.0,12.01,11111222 
WAVCIS,ioos:station:WAVCIS:CSI03:1,2008-01-07T22:00:00Z,29.4412,-92.0613,10.0,12.06,11111222 
WAVCIS,ioos:station:WAVCIS:CSI03:1,2008-01-07T23:00:00Z,29.4412,-92.0613,10.0,12.11,11111222 
WAVCIS,ioos:station:WAVCIS:CSI03:1,2008-01-08T00:00:00Z,29.4412,-92.0613,10.0,12.39,11111222 
WAVCIS,ioos:station:WAVCIS:CSI03:1,2008-01-08T01:00:00Z,29.4412,-92.0613,10.0,12.57,11111222 
WAVCIS,ioos:station:WAVCIS:CSI03:1,2008-01-08T02:00:00Z,29.4412,-92.0613,10.0,12.58,11111222 
WAVCIS,ioos:station:WAVCIS:CSI03:1,2008-01-08T03:00:00Z,29.4412,-92.0613,10.0,12.5,11111222 
WAVCIS,ioos:station:WAVCIS:CSI03:1,2008-01-08T04:00:00Z,29.4412,-92.0613,10.0,12.53,11111222 
WAVCIS,ioos:station:WAVCIS:CSI03:1,2008-01-08T05:00:00Z,29.4412,-92.0613,10.0,12.45,11111222 
WAVCIS,ioos:station:WAVCIS:CSI03:1,2008-01-08T06:00:00Z,29.4412,-92.0613,10.0,12.41,11111222 
WAVCIS,ioos:station:WAVCIS:CSI03:1,2008-01-08T07:00:00Z,29.4412,-92.0613,10.0,12.39,11111222 
WAVCIS,ioos:station:WAVCIS:CSI03:1,2008-01-08T08:00:00Z,29.4412,-92.0613,10.0,12.35,11111222 
WAVCIS,ioos:station:WAVCIS:CSI03:1,2008-01-08T09:00:00Z,29.4412,-92.0613,10.0,12.24,11111222 
WAVCIS,ioos:station:WAVCIS:CSI03:1,2008-01-08T10:00:00Z,29.4412,-92.0613,10.0,11.78,11111222 
WAVCIS,ioos:station:WAVCIS:CSI03:1,2008-01-08T11:00:00Z,29.4412,-92.0613,10.0,11.17,11111222 
WAVCIS,ioos:station:WAVCIS:CSI03:1,2008-01-08T12:00:00Z,29.4412,-92.0613,10.0,11.18,11111222 
WAVCIS,ioos:station:WAVCIS:CSI03:1,2008-01-08T13:00:00Z,29.4412,-92.0613,10.0,11.12,11111222 
WAVCIS,ioos:station:WAVCIS:CSI03:1,2008-01-08T14:00:00Z,29.4412,-92.0613,10.0,10.93,11111222 
WAVCIS,ioos:station:WAVCIS:CSI03:1,2008-01-08T15:00:00Z,29.4412,-92.0613,10.0,10.91,11111222 
WAVCIS,ioos:station:WAVCIS:CSI03:1,2008-01-08T16:00:00Z,29.4412,-92.0613,10.0,11.0,11111222 
WAVCIS,ioos:station:WAVCIS:CSI03:1,2008-01-08T17:00:00Z,29.4412,-92.0613,10.0,11.55,11111222 
WAVCIS,ioos:station:WAVCIS:CSI03:1,2008-01-08T18:00:00Z,29.4412,-92.0613,10.0,11.66,11111222 
WAVCIS,ioos:station:WAVCIS:CSI03:1,2008-01-08T19:00:00Z,29.4412,-92.0613,10.0,11.89,11111222 
WAVCIS,ioos:station:WAVCIS:CSI03:1,2008-01-08T20:00:00Z,29.4412,-92.0613,10.0,12.3,11111222 
WAVCIS,ioos:station:WAVCIS:CSI03:1,2008-01-08T21:00:00Z,29.4412,-92.0613,10.0,12.35,11111222 
WAVCIS,ioos:station:WAVCIS:CSI03:1,2008-01-08T22:00:00Z,29.4412,-92.0613,10.0,12.8,11111222 
WAVCIS,ioos:station:WAVCIS:CSI03:1,2008-01-08T23:00:00Z,29.4412,-92.0613,10.0,12.54,11111222 
WAVCIS,ioos:station:WAVCIS:CSI03:1,2008-01-09T00:00:00Z,29.4412,-92.0613,10.0,12.88,11111222 
WAVCIS,ioos:station:WAVCIS:CSI03:1,2008-01-09T01:00:00Z,29.4412,-92.0613,10.0,12.92,11111222 
WAVCIS,ioos:station:WAVCIS:CSI03:1,2008-01-09T02:00:00Z,29.4412,-92.0613,10.0,13.71,11111222 
WAVCIS,ioos:station:WAVCIS:CSI03:1,2008-01-09T03:00:00Z,29.4412,-92.0613,10.0,13.74,11111222 
WAVCIS,ioos:station:WAVCIS:CSI03:1,2008-01-09T04:00:00Z,29.4412,-92.0613,10.0,13.51,11111222 
WAVCIS,ioos:station:WAVCIS:CSI03:1,2008-01-09T05:00:00Z,29.4412,-92.0613,10.0,12.81,11111222 
WAVCIS,ioos:station:WAVCIS:CSI03:1,2008-01-09T06:00:00Z,29.4412,-92.0613,10.0,13.36,11111222 
WAVCIS,ioos:station:WAVCIS:CSI03:1,2008-01-09T07:00:00Z,29.4412,-92.0613,10.0,13.06,11111222 
WAVCIS,ioos:station:WAVCIS:CSI03:1,2008-01-09T08:00:00Z,29.4412,-92.0613,10.0,12.76,11111222 
WAVCIS,ioos:station:WAVCIS:CSI03:1,2008-01-09T09:00:00Z,29.4412,-92.0613,10.0,12.67,11111222 
WAVCIS,ioos:station:WAVCIS:CSI03:1,2008-01-09T10:00:00Z,29.4412,-92.0613,10.0,12.37,11111222 
WAVCIS,ioos:station:WAVCIS:CSI03:1,2008-01-09T11:00:00Z,29.4412,-92.0613,10.0,12.37,11111222 
WAVCIS,ioos:station:WAVCIS:CSI03:1,2008-01-09T12:00:00Z,29.4412,-92.0613,10.0,12.44,11111222 
WAVCIS,ioos:station:WAVCIS:CSI03:1,2008-01-09T13:00:00Z,29.4412,-92.0613,10.0,12.55,11111222 
WAVCIS,ioos:station:WAVCIS:CSI03:1,2008-01-09T14:00:00Z,29.4412,-92.0613,10.0,12.66,11111222 
WAVCIS,ioos:station:WAVCIS:CSI03:1,2008-01-09T15:00:00Z,29.4412,-92.0613,10.0,12.59,11111222 
WAVCIS,ioos:station:WAVCIS:CSI03:1,2008-01-09T16:00:00Z,29.4412,-92.0613,10.0,12.53,11111222 
WAVCIS,ioos:station:WAVCIS:CSI03:1,2008-01-09T17:00:00Z,29.4412,-92.0613,10.0,12.51,11111222 
WAVCIS,ioos:station:WAVCIS:CSI03:1,2008-01-09T18:00:00Z,29.4412,-92.0613,10.0,12.48,11111222 
WAVCIS,ioos:station:WAVCIS:CSI03:1,2008-01-09T19:00:00Z,29.4412,-92.0613,10.0,12.55,11111222 
WAVCIS,ioos:station:WAVCIS:CSI03:1,2008-01-09T20:00:00Z,29.4412,-92.0613,10.0,12.72,11111222 
WAVCIS,ioos:station:WAVCIS:CSI03:1,2008-01-09T21:00:00Z,29.4412,-92.0613,10.0,12.88,11111222 
WAVCIS,ioos:station:WAVCIS:CSI03:1,2008-01-09T22:00:00Z,29.4412,-92.0613,10.0,12.65,11111222 
WAVCIS,ioos:station:WAVCIS:CSI03:1,2008-01-09T23:00:00Z,29.4412,-92.0613,10.0,12.58,11111222 
WAVCIS,ioos:station:WAVCIS:CSI03:1,2008-01-10T00:00:00Z,29.4412,-92.0613,10.0,13.02,11111222 
WAVCIS,ioos:station:WAVCIS:CSI03:1,2008-01-10T01:00:00Z,29.4412,-92.0613,10.0,13.84,11111222 
WAVCIS,ioos:station:WAVCIS:CSI03:1,2008-01-10T02:00:00Z,29.4412,-92.0613,10.0,13.55,11111222 
WAVCIS,ioos:station:WAVCIS:CSI03:1,2008-01-10T03:00:00Z,29.4412,-92.0613,10.0,13.58,11111222 
WAVCIS,ioos:station:WAVCIS:CSI03:1,2008-01-10T04:00:00Z,29.4412,-92.0613,10.0,13.06,11111222 
WAVCIS,ioos:station:WAVCIS:CSI03:1,2008-01-10T05:00:00Z,29.4412,-92.0613,10.0,13.29,11111222 
WAVCIS,ioos:station:WAVCIS:CSI03:1,2008-01-10T06:00:00Z,29.4412,-92.0613,10.0,12.7,11111222 
WAVCIS,ioos:station:WAVCIS:CSI03:1,2008-01-10T07:00:00Z,29.4412,-92.0613,10.0,13.31,11111222 
WAVCIS,ioos:station:WAVCIS:CSI03:1,2008-01-10T08:00:00Z,29.4412,-92.0613,10.0,12.9,11111222 
WAVCIS,ioos:station:WAVCIS:CSI03:1,2008-01-10T09:00:00Z,29.4412,-92.0613,10.0,12.92,11111222 
WAVCIS,ioos:station:WAVCIS:CSI03:1,2008-01-10T10:00:00Z,29.4412,-92.0613,10.0,12.92,11111222 
WAVCIS,ioos:station:WAVCIS:CSI03:1,2008-01-10T11:00:00Z,29.4412,-92.0613,10.0,13.07,11111222 
WAVCIS,ioos:station:WAVCIS:CSI03:1,2008-01-10T12:00:00Z,29.4412,-92.0613,10.0,13.34,11111222 
WAVCIS,ioos:station:WAVCIS:CSI03:1,2008-01-10T13:00:00Z,29.4412,-92.0613,10.0,13.29,11111222 
WAVCIS,ioos:station:WAVCIS:CSI03:1,2008-01-10T14:00:00Z,29.4412,-92.0613,10.0,13.29,11111222 
WAVCIS,ioos:station:WAVCIS:CSI03:1,2008-01-10T15:00:00Z,29.4412,-92.0613,10.0,13.38,11111222 
WAVCIS,ioos:station:WAVCIS:CSI03:1,2008-01-10T16:00:00Z,29.4412,-92.0613,10.0,13.46,11111222 
WAVCIS,ioos:station:WAVCIS:CSI03:1,2008-01-10T17:00:00Z,29.4412,-92.0613,10.0,13.57,11111222 
WAVCIS,ioos:station:WAVCIS:CSI03:1,2008-01-10T18:00:00Z,29.4412,-92.0613,10.0,13.77,11111222 
WAVCIS,ioos:station:WAVCIS:CSI03:1,2008-01-10T19:00:00Z,29.4412,-92.0613,10.0,13.82,11111222 
WAVCIS,ioos:station:WAVCIS:CSI03:1,2008-01-10T20:00:00Z,29.4412,-92.0613,10.0,13.92,11111222 
WAVCIS,ioos:station:WAVCIS:CSI03:1,2008-01-10T21:00:00Z,29.4412,-92.0613,10.0,14.11,11111222 
WAVCIS,ioos:station:WAVCIS:CSI03:1,2008-01-10T22:00:00Z,29.4412,-92.0613,10.0,14.02,11111222 
WAVCIS,ioos:station:WAVCIS:CSI03:1,2008-01-10T23:00:00Z,29.4412,-92.0613,10.0,14.06,11111222 
WAVCIS,ioos:station:WAVCIS:CSI03:1,2008-01-11T00:00:00Z,29.4412,-92.0613,10.0,14.03,11111222 
WAVCIS,ioos:station:WAVCIS:CSI03:1,2008-01-11T01:00:00Z,29.4412,-92.0613,10.0,14.06,11111222 
WAVCIS,ioos:station:WAVCIS:CSI03:1,2008-01-11T02:00:00Z,29.4412,-92.0613,10.0,13.74,11111222 
WAVCIS,ioos:station:WAVCIS:CSI03:1,2008-01-11T03:00:00Z,29.4412,-92.0613,10.0,14.07,11111222 
WAVCIS,ioos:station:WAVCIS:CSI03:1,2008-01-11T04:00:00Z,29.4412,-92.0613,10.0,14.19,11111222 
WAVCIS,ioos:station:WAVCIS:CSI03:1,2008-01-11T05:00:00Z,29.4412,-92.0613,10.0,14.22,11111222 
WAVCIS,ioos:station:WAVCIS:CSI03:1,2008-01-11T06:00:00Z,29.4412,-92.0613,10.0,14.14,11111222 
WAVCIS,ioos:station:WAVCIS:CSI03:1,2008-01-11T07:00:00Z,29.4412,-92.0613,10.0,14.14,11111222 
WAVCIS,ioos:station:WAVCIS:CSI03:1,2008-01-11T08:00:00Z,29.4412,-92.0613,10.0,14.14,11111222 
WAVCIS,ioos:station:WAVCIS:CSI03:1,2008-01-11T09:00:00Z,29.4412,-92.0613,10.0,14.1,11111222 
WAVCIS,ioos:station:WAVCIS:CSI03:1,2008-01-11T10:00:00Z,29.4412,-92.0613,10.0,14.07,11111222 
WAVCIS,ioos:station:WAVCIS:CSI03:1,2008-01-11T11:00:00Z,29.4412,-92.0613,10.0,14.16,11111222 
WAVCIS,ioos:station:WAVCIS:CSI03:1,2008-01-11T12:00:00Z,29.4412,-92.0613,10.0,14.14,11111222 
WAVCIS,ioos:station:WAVCIS:CSI03:1,2008-01-11T13:00:00Z,29.4412,-92.0613,10.0,13.96,11111222 
WAVCIS,ioos:station:WAVCIS:CSI03:1,2008-01-11T14:00:00Z,29.4412,-92.0613,10.0,13.61,11111222 